Content
SEND FEEDBACK

Daily
Averages
Monthly
Summary
United States of America

ST. LOUIS - SAINT LOUIS UNIVERSITY, MISSOURI


Home > North America > United States > Missouri
Elevation: 177 meters     Latitude: 38 38N     Longitude: 090 14W

WEATHER
 
SELECT A DAY
Number of Records: 186,223;   Date Range: 1/1/95 - 8/12/14
 
SHARE

PRINT THIS DATA

[ ← Previous Day ]
WEATHER ALMANAC - 14 FEBRUARY, 2013
[ Next Day → ]
[ °F ]   °C
Weather ElementAverageHighLow
Temperature8 °C13.3 °C (2:53 pm)3.3 °C (6:53 am)
Dewpoint-0.7 °C1.1 °C (11:53 am)-2.8 °C (11:53 pm)
Humidity55.5 %70 % (6:53 am)40 % (2:53 pm)
Barometer1013.9 hPa1018.3 hPa (11:53 pm)1010.2 hPa (3:53 am)
Wind Speed14.2 km/h24.1 km/h (7:53 pm)
Weather ElementAverage
Visibility16.1 km
Wind DirectionWSW (255.2 °)

Weather ElementTotal
Precipitation---
Heating Degree Days10.1 (Base 18.3)
Averaged from 23 records on 14 February, 2013
WEATHER CONDITIONS BREAKOUT
WIND DIRECTION BREAKOUT
WEATHER BY HOUR - 14 FEBRUARY, 2013
[ °F ]   °C
Local TimeTemperatureDewpointHumidityBarometerVisibilityWind DirectionWind SpeedGust SpeedPrecipitationEventsConditions
1:53 AM4.4 °C-1.1 °C68 %1010.5 hPa16.1 kmVariable5.6 km/hClear
2:53 AM5 °C-1.1 °C65 %1010.5 hPa16.1 kmSW (220°)11.1 km/hClear
3:53 AM4.4 °C-1.1 °C68 %1010.2 hPa16.1 kmSW (220°)7.4 km/hScattered Clouds
4:53 AM4.4 °C-1.1 °C68 %1010.2 hPa16.1 kmSW (220°)11.1 km/hMostly Cloudy
5:53 AM3.9 °C-1.7 °C67 %1010.5 hPa16.1 kmSW (230°)9.3 km/hScattered Clouds
6:53 AM3.3 °C-1.7 °C70 %1011.2 hPa16.1 kmSW (230°)9.3 km/hClear
7:53 AM5 °C-1.1 °C65 %1012.2 hPa16.1 kmWSW (250°)13 km/hPartly Cloudy
8:53 AM7.2 °C-0.6 °C58 %1012.9 hPa16.1 kmWest (260°)16.7 km/hPartly Cloudy
9:53 AM8.9 °C0 °C54 %1013.2 hPa16.1 kmWest (280°)11.1 km/hClear
10:53 AM10 °C0.6 °C52 %1013.5 hPa16.1 kmWest (280°)16.7 km/hClear
11:53 AM11.1 °C1.1 °C50 %1013.5 hPa16.1 kmVariable11.1 km/hClear
12:53 PM12.8 °C0.6 °C43 %1012.9 hPa16.1 kmWNW (290°)20.4 km/hClear
1:53 PM12.8 °C0 °C42 %1012.9 hPa16.1 kmNNW (330°)18.5 km/hClear
2:53 PM13.3 °C0 °C40 %1013.2 hPa16.1 kmWest (260°)16.7 km/hClear
3:53 PM13.3 °C0 °C40 %1013.9 hPa16.1 kmWest (280°)14.8 km/hScattered Clouds
4:53 PM11.7 °C0 °C45 %1014.6 hPa16.1 kmNW (320°)16.7 km/hClear
5:53 PM9.4 °C0 °C52 %1015.6 hPa16.1 kmNNW (330°)18.5 km/hClear
6:53 PM8.9 °C0 °C54 %1016.9 hPa16.1 kmNW (310°)18.5 km/hClear
7:53 PM8.3 °C-0.6 °C54 %1017.3 hPa16.1 kmNW (320°)24.1 km/hClear
8:53 PM6.7 °C-1.1 °C58 %1017.6 hPa16.1 kmNW (310°)13 km/hClear
9:53 PM6.7 °C-1.7 °C55 %1017.6 hPa16.1 kmWNW (290°)9.3 km/hScattered Clouds
10:53 PM6.7 °C-1.7 °C55 %1017.9 hPa16.1 kmNW (310°)13 km/hPartly Cloudy
11:53 PM6.1 °C-2.8 °C53 %1018.3 hPa16.1 kmNNW (330°)20.4 km/hOvercast
Hourly data recorded from KCPS, located 0 kilometers away from St. Louis - Saint Louis University, Missouri







STORIES FROM OUR PARTNERS